Location: Limerick
(52.6650°N, 8.6230°W)
Time: 17:02:18
(UTC+00:00)

ISS - Pass Details

Date: 24 January 2020
Orbit: 415 x 421 km, 51.6° (Epoch: 18 January)

Event Time Altitude Azimuth Distance (km) Brightness Sun altitude
Rises 18:56:46 0° 229° (SW) 2,358 1.1 -16.7°
Reaches altitude 10° 18:58:58 10° 220° (SW) 1,496 -0.3 -17.0°
Maximum altitude 19:02:02 33° 154° (SSE) 726 -2.7 -17.5°
Enters shadow 19:02:20 32° 141° (SE) 739 -2.8 -17.5°
